Погода в Косолапове

Россия / Республика Марий Эл     56°55′33″N   49°36′00″E
темп.,
°C
ветер,
м/с
пор.,
м/с
влажн.,
%
обл.,
%
осадки,
мм/ч
давл.,
гПа
погр.,
м
17 июня, чт
чт1700:00+13ссз413935 0.0 1012486
03:00+11ссз410930 0.0 1014195
06:00+14ссз510835 0.0 1015384
09:00+18ссз47520 0.0 10161159
12:00+20сз584696 0.0 10162470
15:00+19сз494871 0.0 10171951
18:00+18сз596286 0.0 1018646
21:00+13ссз411685 0.0 1021376
18 июня, пт
пт1800:00+9сз410790 0.0 1022209
03:00+8сз410770 0.0 1024230
06:00+11ссз6117215 0.0 1025545
09:00+15с69556 0.0 10261159
12:00+18ссз57465 0.0 10261643
15:00+19сз5646100 0.0 10251501
18:00+18зюз2463100 0.0 1025150
21:00+14юз477690 0.0 1025105
19 июня, сб
сб1900:00+13зюз4126913 0.0 1025233
03:00+13зюз51377100 0.0 1024245
06:00+16зюз6127933 0.0 1024357
09:00+21з710685 0.0 1023608
12:00+25з8105826 0.0 10211298
15:00+26з711580 0.0 10201964
18:00+24з612660 0.0 1019711
21:00+20з512840 0.0 1020240
20 июня, вс
вс2000:00+18з513860 0.0 1020262
03:00+17зсз411920 0.0 1021210
06:00+20сз48790 0.0 1021264
09:00+24сз45635 0.0 1021628
12:00+27сз45540 0.0 10211386
15:00+28сз464924 0.1 10202454
18:00+24з3570100 0.0 102091
21:00+23з347270 0.0 102079
21 июня, пн
пн2100:00+21з387578 0.0 1020187
03:00+21з4971100 0.0 1020209
06:00+21зсз487689 0.0 1021252
09:00+25зсз4661100 0.0 1020607
12:00+27з565495 0.0 10191366
15:00+28зсз57525 0.0 10191653
18:00+26з48664 0.0 1018437
21:00+21з37760 0.0 1018112